[[{"header":{"parameterUnit":"m.s-1","parameterCategory":1,"la1":30.2991,"la2":30.254,"lo1":-89.0895,"lo2":-89.0444,"dy":0.0017,"dx":0.0017,"nx":28,"ny":28,"refTime":"2025-09-02T09:00:00:Z","depth":0,"parameterNumber":2,"parameterNumberName":"U-component_of_WINDS"},"data":[0,0,0,0,0,0,0,0,0,0,0,0,0,0,0,0,0,0,0,0,0,0,0,0,0,0,0,0,0,0,0,0,0,0,0,0,0,0,0,0,0,0,0,0,0,0,0,0,0,0,0,0,0,0,0,0,0,0,-1.6255,-1.6255,0,-1.6292,-1.6293,-1.6293,-1.6257,-1.6256,-1.6254,-1.6253,-1.6291,-1.6294,-1.6296,0,0,0,0,0,0,0,0,0,0,0,0,0,-1.6152,-1.6154,-1.6255,-1.6255,-1.6256,-1.6292,-1.6293,-1.6293,-1.6258,-1.6256,-1.6254,-1.6252,-1.6291,-1.6293,-1.6296,0,0,0,0,0,0,0,0,0,0,0,0,0,-1.6194,-1.6155,-1.6255,-1.6242,-1.6242,-1.6292,-1.6293,-1.6293,-1.6258,-1.6256,-1.6254,-1.6252,-1.629,-1.6293,-1.6297,-1.6361,0,0,-1.6307,-1.6309,0,0,0,0,0,0,0,0,-1.6191,-1.6198,-1.6244,-1.6243,-1.6242,-1.6268,-1.627,-1.6316,-1.6258,-1.6252,-1.6253,-1.6251,-1.6285,-1.6289,-1.6301,-1.6363,-1.6365,-1.6308,-1.631,-1.6311,-1.6312,0,0,0,0,0,0,0,-1.6189,-1.6196,-1.6269,-1.6244,-1.6244,-1.6235,-1.6238,-1.6279,-1.628,-1.6252,-1.625,-1.6255,-1.6285,-1.6297,-1.6301,-1.6365,-1.6308,-1.6311,-1.6313,-1.6314,-1.6482,-1.6484,0,0,0,0,0,0,-1.6187,-1.6194,-1.6268,-1.6271,-1.6211,-1.6238,-1.6242,-1.6262,-1.6279,-1.628,-1.6256,-1.6253,-1.6292,-1.6297,-1.6303,-1.6379,-1.6311,-1.6315,-1.6317,-1.648,-1.6482,-1.6485,0,0,0,0,0,0,-1.6185,-1.6194,-1.6267,-1.6231,-1.624,-1.6242,-1.6265,-1.6264,-1.6277,-1.6283,-1.6283,-1.6269,-1.6291,-1.6298,-1.6347,-1.638,-1.6316,-1.6319,-1.6477,-1.648,-1.6484,-1.6533,0,0,0,0,0,0,-1.6182,-1.6194,-1.6218,-1.6232,-1.6242,-1.6311,-1.6267,-1.6266,-1.6283,-1.6278,-1.6295,-1.6296,-1.629,-1.6342,-1.635,-1.6384,-1.6322,-1.6474,-1.6478,-1.6483,-1.6529,-1.6538,-1.6546,0,0,0,0,0,-1.6179,-1.6231,-1.622,-1.6229,-1.6273,-1.6313,-1.6318,-1.6311,-1.6286,-1.631,-1.6314,-1.6295,-1.6375,-1.6347,-1.6356,-1.6391,-1.6472,-1.6477,-1.6482,-1.6525,-1.6536,-1.6546,0,0,0,0,0,0,-1.622,-1.6232,-1.622,-1.6278,-1.6295,-1.6307,-1.6338,-1.6323,-1.6347,-1.6342,-1.6331,-1.6335,-1.6387,-1.6394,-1.6363,-1.6455,-1.6419,-1.6427,-1.6448,-1.6459,-1.6468,-1.6465,-1.6325,0,0,0,0,0,-1.6236,-1.6268,-1.6276,-1.6327,-1.6336,-1.6335,-1.6352,-1.6345,-1.6362,-1.6368,-1.6376,-1.6393,-1.6421,-1.6441,-1.6468,-1.6529,-1.6532,-1.6558,-1.6567,-1.6574,-1.658,-1.6614,-1.6625,-1.6502,-1.6502,-1.6502,0,0,-1.627,-1.628,-1.6301,-1.6335,-1.6347,-1.638,-1.6341,-1.6377,-1.6402,-1.6374,-1.6421,-1.6427,-1.6445,-1.6501,-1.6525,-1.6508,-1.6615,-1.6581,-1.6586,-1.6589,-1.662,-1.6632,-1.6642,-1.6506,-1.6505,-1.6505,0,0,-1.6347,-1.6358,-1.6401,-1.6414,-1.6433,-1.6432,-1.6442,-1.6456,-1.6459,-1.6506,-1.6486,-1.6514,-1.6564,-1.6578,-1.6592,-1.6674,-1.6657,-1.6683,-1.6729,-1.6761,-1.6771,-1.6779,-1.6809,-1.682,-1.669,-1.669,-1.669,0,-1.6386,-1.6435,-1.6426,-1.6463,-1.6479,-1.6455,-1.6499,-1.6512,-1.6538,-1.655,-1.6529,-1.6592,-1.6602,-1.6661,-1.6681,-1.6693,-1.6704,-1.6681,-1.677,-1.6779,-1.6786,-1.6814,-1.6826,-1.6693,-1.6692,-1.6692,-1.6692,0,-1.6482,-1.6516,-1.6549,-1.6575,-1.6594,-1.6635,-1.6632,-1.6652,-1.6643,-1.6645,-1.6693,-1.6704,-1.6733,-1.6747,-1.6738,-1.6804,-1.6793,-1.6772,-1.6736,-1.6801,-1.6828,-1.6838,-1.6697,-1.6696,-1.6695,-1.6694,0,0,-1.6588,-1.6608,-1.662,-1.6631,-1.665,-1.6676,-1.6715,-1.6743,-1.6761,-1.678,-1.6813,-1.6856,-1.6836,-1.6852,-1.6844,-1.6873,-1.6938,-1.6848,-1.6848,-1.6865,-1.7011,-1.7027,-1.704,-1.6926,-1.6928,-1.693,-1.701,0,-1.6666,-1.6734,-1.6727,-1.6792,-1.6823,-1.6801,-1.6835,-1.685,-1.6852,-1.6879,-1.6881,-1.6912,-1.6884,-1.6893,-1.692,-1.6924,-1.6967,-1.6918,-1.6957,-1.6958,-1.6953,-1.7053,-1.7071,-1.7145,-1.702,-1.7022,-1.7023,0,-1.6766,-1.6789,-1.6857,-1.6871,-1.6883,-1.6914,-1.694,-1.6965,-1.6982,-1.6981,-1.6999,-1.6986,-1.7026,-1.6989,-1.7043,-1.701,-1.7025,-1.703,-1.7032,-1.7036,-1.6995,-1.706,-1.7169,-1.718,-1.7039,-1.7038,-1.7036,0,-1.6837,-1.6884,-1.6931,-1.6941,-1.6958,-1.6981,-1.6989,-1.7003,-1.702,-1.7042,-1.7053,-1.708,-1.7094,-1.7115,-1.711,-1.7083,-1.7165,-1.7128,-1.7166,-1.7166,-1.7185,-1.7184,-1.7298,-1.7194,-1.7194,-1.7194,-1.7194,0,-1.6925,-1.6968,-1.6963,-1.6992,-1.7039,-1.703,-1.7077,-1.7082,-1.7095,-1.7124,-1.7106,-1.7134,-1.7126,-1.7154,-1.715,-1.7196,-1.7202,-1.7203,-1.7202,-1.7205,-1.7205,-1.7215,-1.721,-1.7197,-1.7196,-1.7196,-1.7195,0,-1.7012,-1.701,-1.706,-1.7072,-1.7076,-1.711,-1.712,-1.7147,-1.7148,-1.7185,-1.7194,-1.7195,-1.7227,-1.7224,-1.7259,-1.7257,-1.7313,-1.7305,-1.7308,-1.7306,-1.7345,-1.7341,-1.747,-1.7486,-1.7371,-1.7373,-1.7373,0,-1.7069,-1.7101,-1.7116,-1.7135,-1.7144,-1.7174,-1.7192,-1.7184,-1.7203,-1.7224,-1.7249,-1.7279,-1.7302,-1.7354,-1.7358,-1.7385,-1.7378,-1.7421,-1.7382,-1.7384,-1.7379,-1.7377,-1.7381,-1.7429,-1.743,-1.7431,-1.7432,0,-1.717,-1.7168,-1.7194,-1.7219,-1.7241,-1.7261,-1.7279,-1.7295,-1.7289,-1.7311,-1.7343,-1.7361,-1.7398,-1.7428,-1.7453,-1.7461,-1.7446,-1.7444,-1.7455,-1.7459,-1.7459,-1.746,-1.7329,-1.7442,-1.7441,-1.744,-1.744,-1.7439,-1.7244,-1.7272,-1.7287,-1.7316,-1.7329,-1.7346,-1.7372,-1.7376,-1.7403,-1.7432,-1.7425,-1.7461,-1.7477,-1.7509,-1.752,-1.7548,-1.7533,-1.7548,-1.7551,-1.7555,-1.756,-1.7454,-1.7553,-1.7552,-1.7552,-1.7552,-1.7552,0,-1.7345,-1.7353,-1.738,-1.7406,-1.7429,-1.7412,-1.7431,-1.7452,-1.7484,-1.75,-1.7523,-1.756,-1.7589,-1.7595,-1.7623,-1.7644,-1.7638,-1.7652,-1.765,-1.7652,-1.7572,-1.7561,-1.7656,-1.7656,-1.7656,-1.7656,-1.7656,-1.7656,-1.74,-1.7446,-1.7445,-1.7497,-1.7505,-1.754,-1.7552,-1.7568,-1.758,-1.7622,-1.7646,-1.765,-1.7662,-1.769,-1.7716,-1.7717,-1.7728,-1.7745,-1.7743,-1.7668,-1.7658,-1.7648,-1.7637,-1.7747,-1.7748,-1.7821,-1.7822,-1.7823]},{"header":{"parameterUnit":"m.s-1","parameterCategory":1,"la1":30.2991,"la2":30.254,"lo1":-89.0895,"lo2":-89.0444,"dy":0.0017,"dx":0.0017,"nx":28,"ny":28,"refTime":"2025-09-02T09:00:00:Z","depth":0,"parameterNumber":3,"parameterNumberName":"V-component_of_WINDS"},"data":[0,0,0,0,0,0,0,0,0,0,0,0,0,0,0,0,0,0,0,0,0,0,0,0,0,0,0,0,0,0,0,0,0,0,0,0,0,0,0,0,0,0,0,0,0,0,0,0,0,0,0,0,0,0,0,0,0,0,-0.113,-0.1131,0,-0.1188,-0.1188,-0.1189,-0.1263,-0.1264,-0.1265,-0.1266,-0.1326,-0.1327,-0.1327,0,0,0,0,0,0,0,0,0,0,0,0,0,-0.1085,-0.1086,-0.113,-0.1131,-0.1132,-0.1188,-0.1188,-0.1189,-0.1262,-0.1264,-0.1265,-0.1267,-0.1326,-0.1327,-0.1327,0,0,0,0,0,0,0,0,0,0,0,0,0,-0.112,-0.1086,-0.113,-0.1175,-0.1179,-0.1187,-0.1188,-0.1189,-0.1262,-0.1264,-0.1266,-0.1267,-0.1326,-0.1326,-0.1327,-0.1296,0,0,-0.1329,-0.133,0,0,0,0,0,0,0,0,-0.1118,-0.1121,-0.1168,-0.1172,-0.1177,-0.122,-0.1195,-0.1225,-0.1262,-0.1231,-0.1266,-0.1268,-0.1289,-0.1293,-0.13,-0.1299,-0.1301,-0.1329,-0.133,-0.133,-0.133,0,0,0,0,0,0,0,-0.1115,-0.1119,-0.1153,-0.1168,-0.1174,-0.1193,-0.1199,-0.1201,-0.1249,-0.1234,-0.1239,-0.1245,-0.1292,-0.1299,-0.1302,-0.1302,-0.1329,-0.133,-0.1331,-0.1331,-0.1279,-0.1278,0,0,0,0,0,0,-0.1106,-0.1117,-0.1151,-0.1155,-0.1151,-0.1192,-0.12,-0.1204,-0.125,-0.1258,-0.1243,-0.1248,-0.1297,-0.1301,-0.1304,-0.1271,-0.133,-0.1331,-0.1331,-0.1281,-0.1279,-0.1277,0,0,0,0,0,0,-0.1105,-0.1108,-0.1149,-0.1137,-0.1144,-0.1191,-0.1195,-0.1204,-0.1211,-0.1257,-0.1266,-0.1241,-0.1299,-0.1303,-0.1298,-0.1275,-0.1331,-0.1332,-0.1283,-0.128,-0.1278,-0.1205,0,0,0,0,0,0,-0.1103,-0.1107,-0.1096,-0.1136,-0.1144,-0.114,-0.1194,-0.1204,-0.1212,-0.1219,-0.1257,-0.1265,-0.13,-0.1296,-0.1298,-0.1277,-0.1333,-0.1286,-0.1282,-0.1279,-0.1209,-0.12,-0.1192,0,0,0,0,0,-0.1101,-0.1073,-0.1095,-0.1098,-0.113,-0.1139,-0.1143,-0.1184,-0.121,-0.1199,-0.1228,-0.1264,-0.1277,-0.1295,-0.1298,-0.1276,-0.1287,-0.1283,-0.1279,-0.1213,-0.1202,-0.1192,0,0,0,0,0,0,-0.1029,-0.1079,-0.1104,-0.1088,-0.1108,-0.1151,-0.1138,-0.117,-0.1184,-0.119,-0.124,-0.1248,-0.1236,-0.1256,-0.1275,-0.1249,-0.1287,-0.1284,-0.1236,-0.1226,-0.1217,-0.1212,-0.1333,0,0,0,0,0,-0.101,-0.1013,-0.1057,-0.1039,-0.1048,-0.1091,-0.1096,-0.1126,-0.1149,-0.1158,-0.1187,-0.1209,-0.1218,-0.1223,-0.1234,-0.1213,-0.1222,-0.1199,-0.119,-0.1183,-0.1179,-0.117,-0.116,-0.1264,-0.1264,-0.1264,0,0,-0.0974,-0.1001,-0.1,-0.1025,-0.1044,-0.1046,-0.1098,-0.1097,-0.1099,-0.1159,-0.1155,-0.1177,-0.1205,-0.1191,-0.1187,-0.1207,-0.1153,-0.1178,-0.1171,-0.1172,-0.1165,-0.1155,-0.1146,-0.1261,-0.1261,-0.1262,0,0,-0.0907,-0.0928,-0.0915,-0.0934,-0.0962,-0.0992,-0.0988,-0.1027,-0.1043,-0.104,-0.1085,-0.1088,-0.1102,-0.112,-0.1131,-0.1072,-0.1106,-0.1074,-0.1028,-0.1018,-0.101,-0.1003,-0.0982,-0.0974,-0.107,-0.107,-0.107,0,-0.0858,-0.0861,-0.0905,-0.0901,-0.0911,-0.0965,-0.0952,-0.0968,-0.0999,-0.1005,-0.1027,-0.1046,-0.1069,-0.1061,-0.1046,-0.1053,-0.1052,-0.107,-0.1008,-0.1001,-0.0995,-0.0976,-0.0968,-0.1066,-0.1067,-0.1067,-0.1067,0,-0.0799,-0.0801,-0.0788,-0.0816,-0.0824,-0.0816,-0.0859,-0.0862,-0.089,-0.0917,-0.0914,-0.0943,-0.096,-0.0961,-0.0989,-0.0957,-0.0968,-0.0998,-0.1038,-0.0981,-0.0963,-0.0956,-0.106,-0.1062,-0.1063,-0.1064,0,0,-0.0689,-0.0741,-0.0735,-0.0749,-0.0784,-0.0787,-0.0782,-0.0799,-0.0801,-0.082,-0.0817,-0.0828,-0.0857,-0.0869,-0.09,-0.0891,-0.0843,-0.0923,-0.0924,-0.0907,-0.081,-0.0787,-0.0777,-0.0865,-0.0864,-0.0863,-0.0807,0,-0.0629,-0.0622,-0.0661,-0.0645,-0.0648,-0.0698,-0.0694,-0.0716,-0.0741,-0.0747,-0.0775,-0.0782,-0.0818,-0.0826,-0.082,-0.085,-0.0824,-0.0854,-0.0864,-0.0864,-0.0855,-0.0768,-0.0744,-0.069,-0.0801,-0.08,-0.0799,0,-0.0559,-0.0574,-0.0557,-0.0594,-0.0597,-0.0592,-0.0611,-0.0616,-0.0642,-0.0661,-0.0674,-0.071,-0.0708,-0.0746,-0.0744,-0.0764,-0.077,-0.0785,-0.0784,-0.0787,-0.0828,-0.0769,-0.0674,-0.0666,-0.0789,-0.0789,-0.079,0,-0.048,-0.0496,-0.0489,-0.0499,-0.0541,-0.0537,-0.0554,-0.0582,-0.059,-0.0607,-0.0612,-0.0629,-0.0637,-0.065,-0.0689,-0.0712,-0.0683,-0.0723,-0.0699,-0.0698,-0.069,-0.069,-0.0595,-0.0694,-0.0694,-0.0694,-0.0694,0,-0.0409,-0.0397,-0.0454,-0.0449,-0.0437,-0.0482,-0.047,-0.0493,-0.0517,-0.0518,-0.0563,-0.0563,-0.0614,-0.062,-0.0651,-0.0645,-0.0649,-0.0665,-0.0673,-0.0661,-0.0659,-0.0666,-0.067,-0.0692,-0.0692,-0.0693,-0.0693,0,-0.0319,-0.0356,-0.0352,-0.0392,-0.0402,-0.0392,-0.0427,-0.0425,-0.0453,-0.0453,-0.0456,-0.05,-0.051,-0.055,-0.0569,-0.059,-0.0574,-0.059,-0.0565,-0.057,-0.0543,-0.0545,-0.045,-0.044,-0.0544,-0.0543,-0.0542,0,-0.0272,-0.0264,-0.0303,-0.0307,-0.0323,-0.0328,-0.0336,-0.0381,-0.0387,-0.0416,-0.041,-0.0424,-0.0436,-0.0449,-0.0483,-0.0498,-0.0515,-0.0481,-0.0518,-0.0506,-0.0515,-0.0515,-0.0515,-0.0473,-0.0471,-0.047,-0.0469,0,-0.0184,-0.0203,-0.0212,-0.0228,-0.0237,-0.0252,-0.027,-0.027,-0.032,-0.0325,-0.0335,-0.0345,-0.0364,-0.0377,-0.0398,-0.0417,-0.0451,-0.0457,-0.0453,-0.044,-0.0426,-0.0433,-0.0543,-0.0459,-0.046,-0.0461,-0.0462,-0.0462,-0.0114,-0.0109,-0.0136,-0.0146,-0.0164,-0.0179,-0.0179,-0.0207,-0.0216,-0.0235,-0.0261,-0.0267,-0.0294,-0.0326,-0.0342,-0.0349,-0.0368,-0.0361,-0.0359,-0.0357,-0.0351,-0.0424,-0.0352,-0.0353,-0.0353,-0.0353,-0.0354,0,-0.0029,-0.0049,-0.0057,-0.008,-0.0087,-0.0119,-0.014,-0.0145,-0.015,-0.0172,-0.0183,-0.0195,-0.0207,-0.0242,-0.0258,-0.0257,-0.0273,-0.026,-0.026,-0.0264,-0.0332,-0.0335,-0.0246,-0.0246,-0.0246,-0.0246,-0.0246,-0.0246,0.0015,0.0021,-0.0001,-0.0004,-0.0025,-0.0031,-0.0041,-0.0056,-0.0073,-0.0084,-0.0095,-0.0117,-0.0144,-0.0163,-0.0176,-0.0186,-0.019,-0.0171,-0.0186,-0.0249,-0.0259,-0.0269,-0.0272,-0.0172,-0.0172,-0.0118,-0.0118,-0.0117]}]]